Showing default

YUNYAO-1 45, 63346

Orbit data source: Space-Track

YUNYAO-1 45, 63346 is a payload satellite owned by Yunyao yuhang (CN) in SSO that was launched on Fri, 21 Mar 2025 UTC via a GUSHENXING 1 launch vehicle from the Jiuquan Satellite Launch Center, China (JSC). Payload-class satellites include a variety of spacecraft equipped with specific instruments for various scientific and technological missions. These include communications satellites like Starlink; space stations such as the ISS; scientific satellites like the Hubble; Earth observation satellites from companies like Planet Labs, Umbra, and HawkEye 360; GPS; miniature CubeSats for education and research; and military/defense satellites.

Loading next visibility...
Identifier
63346, 2025-059C
Orbit
SSO
Last TLE update
7 hours ago
Origin
Manufacturer
Changguang WJ
Mission
Operational spacecraft
Bus & Motor
YY-1, Unknown motor
Mass
~50 kg wet, ~50 kg dry
Launch date (UTC)
2025-03-21 (2 months ago)
Launch vehicle
GUSHENXING 1
Launch site
Jiuquan Satellite Launch Center, China (JSC)
Object type
Payload
Rocket body
Debris
Shape & HBR
Unknown
Radar Cross Section
Medium (>0.1 m² and <1 m²)

Expand to show TLE details & history

TLE from 7 hours ago
0 YUNYAO-1 45
1 63346U 25059C   25128.95582210  .00004876  00000-0  30275-3 0  9998
2 63346  97.6010 308.7525 0014608 120.4719 239.7955 15.10073726  7324
Epoch: 2025-05-08T22:56Z
Definitive object data (Epoch: 2025-05-08T22:56:23.029Z)
Latitude
-0.00002°
Longitude
97.63766°
Altitude
544.14 km
Speed
7.587 km/s
True Right ascension
20h 35m 00s
True Declination
0° 00' 00"
Sunlit
Object was in daylight at TLE epoch
Visualization TLE readout
Latitude
61.71517°
Longitude
-67.79966°
Altitude
536.458 km
Speed
7.606 km/s
Apparent Right ascension
04h 38m 08s
Apparent Declination
23° 09' 02"
Sunlit
Object is in daylight
Visualization observer readout
Local Sidereal Time
13:57:51
Azimuth
321.83° NNW
Elevation
-16.701°
Doppler factor
1
Orbital elements
Apogee altitude
543.058 km
Perigee altitude
522.867 km
Semi-major axis
6,911.099 km
Eccentricity
0.0014608
Inclination
97.601°
RAAN
308.7525°
Arg. of periapsis
120.4719°
True anomaly
239.65096°
Mean anomaly
239.7955°
Eccentric anomaly
239.72322°
Mean motion
3.77766 °/min
BSTAR
0.00030275
Orbital period
95.3 mins
Loading maneuver chart data...
Loading SW <> Apogee altitude chart data...
Loading historical data...
Loading historical data...
Loading historical data...
Loading historical data...
Loading historical data...
Loading historical data...
Loading historical data...
Other satellites on launch #59 in the year 2025 (2025-03-21 UTC)

YUNYAO-1 45 Visibility forecast

Observer location: undefined°, undefined°

Span
Click to sort rows by Start time (UTC) header in descending order
Start Az.
Max El. time (UTC)
Max El. Az.
Max El.
End time (UTC)
End Az.
7 mins2025-05-09 11:47:07.071Z155.832° SSE2025-05-09 11:50:07.071Z112.575° SE40.468°2025-05-09 11:54:07.071Z354.764° N
5 mins2025-05-10 00:58:07.071Z2.986° NNE2025-05-10 01:00:07.071Z256.674° W43.457°2025-05-10 01:03:07.071Z200.384° SSW
|